Simultaneous Nadir Overpasses (SNOs) Predictions

Prediction of SNOs between METOP-A and TERRA Satellite Orbit:

Table of predicted SNOs for the next 14.0 days since TLE Epoch: 7/13/2019
Index Date (METOP-A) Time (METOP-A) Lat,Lon (METOP-A) SZA (METOP-A ) Date (TERRA) Time (TERRA) Lat,Lon (TERRA) SZA (TERRA ) Distance(km) Time Diff (sec)
1 07/14/2019 00:41:31 81.45,-140.27 62.74 07/14/2019 00:42:10 81.45,-140.41 62.74 2.32 39
2 07/14/2019 01:32:11 -81.45, 27.26 117.24 07/14/2019 01:31:37 -81.45, 27.16 117.27 1.64 34
3 07/16/2019 20:15:54 81.45, -74.04 63.15 07/16/2019 20:16:24 81.44, -74.20 63.14 2.80 30
4 07/16/2019 21:06:34 -81.45, 93.52 116.82 07/16/2019 21:05:51 -81.44, 93.40 116.86 2.31 43
5 07/19/2019 15:50:17 81.45, -7.43 63.65 07/19/2019 15:50:38 81.45, -7.58 63.65 2.57 21
6 07/19/2019 16:40:57 -81.44, 160.18 116.31 07/19/2019 16:40:05 -81.45, 160.04 116.35 2.35 52
7 07/22/2019 11:24:41 81.45, 58.77 64.16 07/22/2019 11:24:53 81.44, 58.66 64.15 2.17 12
8 07/22/2019 12:15:21 -81.45,-133.58 115.80 07/22/2019 12:14:20 -81.44,-133.70 115.85 2.05 61
9 07/25/2019 06:59:03 81.45, 125.36 64.76 07/25/2019 06:59:06 81.45, 125.31 64.75 0.99 3




NCC Satellite Simultaneous Nadir Overpasses (SNOs) Prediction Service
